Location: Unspecified
(17.6330°N, 0.0000°E)
Time: 10:40:46
(UTC+00:00)

Tiros 1 despin weight - All Passes

Search period start: 19 June 2019 00:00
Search period end: 29 June 2019 00:00
Orbit: 595 x 642 km, 48.2° (Epoch: 18 June)

Date Brightness Start Highest point End Pass type
(mag) Time Alt. Az. Time Alt. Az. Time Alt. Az.
19 Jun - 07:28:11 10° NNW 07:32:24 41° NE 07:36:40 10° ESE daylight
19 Jun - 09:10:49 10° W 09:13:42 17° SW 09:16:38 10° SSW daylight
19 Jun - 21:25:45 10° SSW 21:29:58 39° SE 21:34:07 10° ENE night (unlit)
19 Jun - 23:08:18 10° W 23:11:30 19° NW 23:14:42 10° N night (unlit)
20 Jun - 06:05:49 10° NNE 06:07:13 11° NE 06:08:37 10° ENE daylight
20 Jun - 07:44:33 10° NW 07:49:00 76° SW 07:53:31 10° SE daylight
20 Jun - 21:42:00 10° SW 21:46:30 78° NW 21:50:58 10° NE night (unlit)
21 Jun - 06:20:25 10° NNW 06:24:05 25° NE 06:27:48 10° E daylight
21 Jun - 08:01:42 10° WNW 08:05:32 28° SW 08:09:25 10° S daylight
21 Jun - 20:18:11 10° S 20:21:46 23° SE 20:25:19 10° ENE night (unlit)
21 Jun - 21:59:11 10° WSW 22:03:10 30° NW 22:07:06 10° NNE night (unlit)
22 Jun - 06:36:23 10° NW 06:40:46 61° NE 06:45:12 10° SE daylight
22 Jun - 08:20:51 10° WSW 08:22:00 11° SW 08:23:09 10° SW daylight
22 Jun - 20:33:48 10° SSW 20:38:16 60° SE 20:42:41 10° NE visible
22 Jun - 22:17:40 10° WNW 22:19:58 14° NW 22:22:17 10° N night (unlit)
23 Jun - 05:13:00 10° N 05:15:43 16° NE 05:18:26 10° ENE daylight
23 Jun - 06:53:03 10° NW 06:57:20 49° SW 07:01:41 10° SSE daylight
23 Jun - 19:11:21 10° SSE 19:13:35 13° SE 19:15:49 10° E visible
23 Jun - 20:50:27 10° WSW 20:54:52 51° NW 20:59:13 10° NNE visible
24 Jun - 05:28:26 10° NNW 05:32:29 35° NE 05:36:36 10° ESE daylight
24 Jun - 07:10:40 10° W 07:13:49 19° SW 07:17:00 10° S daylight
24 Jun - 19:25:56 10° SSW 19:30:04 34° SE 19:34:09 10° ENE visible
24 Jun - 21:08:04 10° W 21:11:35 22° NW 21:15:03 10° N visible
25 Jun - 05:44:42 10° NW 05:49:07 88° SW 05:53:36 10° SE daylight
25 Jun - 19:42:02 10° SW 19:46:36 89° NW 19:51:07 10° NE visible
26 Jun - 04:20:44 10° N 04:24:10 22° NE 04:27:38 10° E visible
26 Jun - 06:01:42 10° WNW 06:05:39 32° SW 06:09:39 10° SSE daylight
26 Jun - 18:18:29 10° S 18:21:53 20° SE 18:25:14 10° E daylight
26 Jun - 19:59:04 10° WSW 20:03:14 35° NW 20:07:21 10° NNE visible
27 Jun - 04:36:34 10° NNW 04:40:53 53° NE 04:45:13 10° SE visible
27 Jun - 06:20:14 10° WSW 06:22:07 12° SW 06:24:00 10° SSW daylight
27 Jun - 18:33:54 10° SSW 18:38:22 52° SE 18:42:46 10° NE daylight
27 Jun - 20:17:15 10° WNW 20:20:01 16° NW 20:22:46 10° N visible
28 Jun - 03:13:28 10° N 03:15:46 14° NE 03:18:05 10° ENE visible
28 Jun - 04:53:08 10° NW 04:57:27 57° SW 05:01:49 10° SSE visible
28 Jun - 17:12:00 10° SSE 17:13:41 12° SE 17:15:22 10° ESE daylight
28 Jun - 18:50:25 10° SW 18:54:56 59° NW 18:59:25 10° NNE daylight
